Flag for Israel Weather past 2 weeks in Holon, Israel

Now
63 °F

Passing clouds.


Feels Like: 63 °F
Forecast: 64 / 77 °F
Wind: 3 mph from North

Location: Dov Airport

Current Time: May 5, 2015 at 6:12:41 AM

Latest Report: May 5, 2015 at 5:50 AM


Visibility: N/A

Pressure: 29.83 "Hg

Humidity: 77%

Dew point: 55 °F

Location of HolonLocation

Historic Weather in Holon — Graph

°F

Holon temperature yesterday

Maximum temperature yesterday: 70 °F (at 9:50 AM)
Minimum temperature yesterday: 66 °F (at 5:50 AM)
Average temperature yesterday: 68 °F

Past Weeks' High & Low Weather Summary

 TemperatureHumidityPressure
High82 °F (Apr 20, 3:50 PM)100% (Apr 29, 5:50 AM)30.21 "Hg (Apr 29, 5:50 AM)
Low54 °F (Apr 25, 6:00 AM)15% (Apr 20, 6:50 PM)29.80 "Hg (Apr 20, 8:50 PM)
Average68 °F65%29.94 "Hg
* Reported Apr 20 5:50 AM — May 5 4:50 AM, Holon, Weather by CustomWeather, © 2015

Note: Actual official high and low records may vary slightly from our data, if they occured in-between our weather recording intervals... More about our weather records

Advertising

Holon weather history for previous 24 hours

 ConditionsComfort  
Time TempWeatherWind HumidityBarometerVisibility
4:50 AM
Tue, May 5
63 °FPassing clouds.3 mph77%29.83 "HgN/A
10:50 PM
Mon, May 4
66 °FPassing clouds.5 mph68%29.89 "HgN/A
9:50 PM66 °FPassing clouds.8 mph68%29.89 "HgN/A
8:50 PM66 °FPassing clouds.6 mph68%29.86 "HgN/A
7:50 PM66 °FPartly sunny.7 mph73%29.86 "HgN/A
6:50 PM68 °FPartly sunny.8 mph69%29.86 "HgN/A
5:50 PM68 °FPassing clouds.9 mph64%29.86 "HgN/A
4:50 PM70 °FScattered clouds.9 mph60%29.86 "HgN/A
3:50 PM70 °FScattered clouds.10 mph64%29.86 "HgN/A
2:50 PM70 °FScattered clouds.9 mph64%29.86 "HgN/A
1:50 PM70 °FPassing clouds.9 mph60%29.89 "HgN/A
12:50 PM70 °FPassing clouds.9 mph60%29.89 "HgN/A
11:50 AM70 °FPassing clouds.8 mph57%29.89 "HgN/A
10:50 AM70 °FPassing clouds.7 mph57%29.89 "HgN/A
9:50 AM70 °FPassing clouds.6 mph57%29.89 "HgN/A
8:50 AM68 °FScattered clouds.7 mph64%29.89 "HgN/A
7:50 AM66 °FScattered clouds.7 mph68%29.86 "HgN/A
6:50 AM66 °FPassing clouds.7 mph68%29.86 "HgN/A
Weather by CustomWeather, © 2015

See weather overviewHow to use our weather pages